Tracking 27188 objects as of 1-Apr-2023
HD Live streaming from Space Station
objects crossing your sky now

SPACEBEE-49

Track SPACEBEE-49 now!
10-day predictions


NORAD ID: 47432
Int'l Code: 2021-006V
Perigee: 427.7 km
Apogee: 430.4 km
Inclination: 97.4 °
Period: 93.0 minutes
Semi major axis: 6800 km
RCS: Unknown
Launch date: January 24, 2021
Source: United States (US)
Launch site: AIR FORCE EASTERN TEST RANGE (AFETR)
Your satellite tracking list
Your tracking list is empty




NASA's NSSDC Master Catalog

Two Line Element Set (TLE):
1 47432U 21006V   23091.41211120  .00177649  00000-0  33045-2 0  9997
2 47432  97.4007 154.7536 0001952 267.5971  92.5056 15.48218287122181
Source of the keplerian elements: AFSPC